Location: Eaton
(41.3139°N, 82.0207°W)
Time: 12:43:25
(UTC+00:00)

Cosmos 1461 - Pass Details

Date: 17 June 2021
Orbit: 513 x 650 km, 65.0° (Epoch: 26 July)

Event Time Altitude Azimuth Distance (km) Brightness Sun altitude
Rises 03:49:23 0° 321° (NW) 2,789 7.8 -21.3°
Reaches altitude 10° 03:51:45 10° 314° (NW) 1,862 6.5 -21.5°
Maximum altitude 03:55:40 41° 244° (WSW) 802 3.5 -21.8°
Enters shadow 03:55:52 41° 236° (SW) 806 3.5 -21.8°
